STARLINK-5776, 57151

Orbit data source: Space-Track

STARLINK-5776, 57151 is a payload satellite owned by SpaceX/Seattle (US) in LEO that was launched on Fri, 23 Jun 2023 UTC via an FALCON 9 launch vehicle from the Air Force Eastern Test Range (AFETR). Payload-class satellites include a variety of spacecraft equipped with specific instruments for various scientific and technological missions. These include communications satellites like Starlink; space stations such as the ISS; scientific satellites like the Hubble; Earth observation satellites from companies like Planet Labs, Umbra, and HawkEye 360; GPS; miniature CubeSats for education and research; and military/defense satellites.

Loading next visibility...
Identifier
57151, 2023-090BC
Orbit
LEO
Country
Flag of USUS
Related business
Manufacturer
SpaceX/Seattle
Mission
Operational Commercial Communications
Bus & Motor
STARLINK, Unknown motor
Mass
305 kg wet, ~290 kg dry
Launch date (UTC)
2023-06-23 (3 years ago)
Launch vehicle
FALCON 9
Launch site
Air Force Eastern Test Range (AFETR)
Object type
Payload
Rocket body
Debris
Shape & HBR
Box + 1 Pan, 10.1 m
Radar Cross Section
11.087 m², Large (>1 m²)

Expand to show TLE details & history
Last TLE update: 2 days ago

TLE from 2 days ago
0 STARLINK-5776
1 57151U 23090BC  26171.35526440 -.00000424  00000-0 -58804-5 0  9991
2 57151  43.0047  43.6295 0001119 273.8983  86.1741 15.27575358166244
Epoch: 2026-06-20T08:31Z
TLE epoch observation values (Epoch: 2026-06-20T08:31:34.844Z)
Latitude
0.00001°
Longitude
7.16325°
Altitude
482.788 km
Speed
7.626 km/s
True Right ascension
02h 54m 31s
True Declination
0° 00' 00"
Sunlit
Object was in daylight at epoch
Visualization orbit readout
Latitude
Unknown
Longitude
Unknown
Altitude
Unknown
Speed
Unknown
Apparent Right ascension
Unknown
Apparent Declination
Unknown
Sunlit
N/A
Visualization observer readout
Local Sidereal Time
23:07:32
Azimuth
Unknown
Elevation
Unknown
Doppler factor
Unknown
Orbital elements
Apogee altitude
485.775 km
Perigee altitude
484.239 km
Semi-major axis
6,863.144 km
Eccentricity
0.00011
Inclination
43.0047°
RAAN
43.6295°
Arg. of periapsis
273.8983°
True anomaly
86.18689°
Mean anomaly
86.1741°
Eccentric anomaly
86.1805°
Mean motion
3.81732 °/min
Orbital period
94.31 mins
BSTAR
-0.0000058804
Loading maneuver chart data...
Computing Atmospheric mass density...
Loading historical data...
Loading historical data...
Loading historical data...
Loading historical data...
Loading historical data...
Loading historical data...
Loading historical data...

Documentation

Showing up to 5 results
|